Tracking 17556 objects as of 7-February-2016
HD Live streaming from Space Station
objects crossing your sky now

NAVSTAR 30 (USA 88)

Track NAVSTAR 30 (USA 88) now!
NAVSTAR 30 (USA 88) is classified as:


NORAD ID: 22446
Int'l Code: 1993-007A
Perigee: 21,293.0 km
Apogee: 21,426.8 km
Inclination: 55.4 °
Period: 766.0 minutes
Semi major axis: 27730 km
RCS: 2.5118 m2 (large)
Launch date: February 3, 1993
Source: United States (US)
Launch site: AIR FORCE EASTERN TEST RANGE (AFETR)
PRN:
Your satellite tracking list
Your tracking list is empty





NASA's NSSDC Master Catalog

Two Line Element Set (TLE):
1 22446U 93007A   16037.51993557 -.00000047  00000-0  00000+0 0  9999
2 22446  55.4344  17.1676 0024123 321.8730 126.7283  1.8891792162888
Source of the keplerian elements: AFSPC

N2YO: 294